Regional Weather Roundup
Issued by NWS Charleston, WV

Home | Current Version | Previous Version | Text Only | Print | Product List | Glossary On
Versions: 1 2 3 4 5 6 7 8 9 10 11 12 13 14 15 16 17 18 19 20 21 22 23 24 25 26 27 28 29 30 31 32 33 34 35 36 37 38 39 40 41 42 43 44 45 46 47 48 49 50
000
ASUS41 KRLX 060710
RWRRLX
West Virginia Regional Weather Roundup
National Weather Service Charleston WV
200 AM EST FRI MAR 06 2015

Note: "fair" indicates few or no clouds below 12,000 feet with no
significant weather and/or obstructions to visibility.

WVZ003-060800-
Northern Panhandle of West Virginia

CITY           SKY/WX    TMP DP  RH WIND       PRES   REMARKS
WHEELING       PTCLDY     4  -1  80 CALM      30.48R
$$

WVZ009-060800-
Northwest West Virginia

CITY           SKY/WX    TMP DP  RH WIND       PRES   REMARKS
PARKERSBURG    PTCLDY     5   0  79 CALM      30.55S
$$

WVZ006-060800-
Western West Virginia

CITY           SKY/WX    TMP DP  RH WIND       PRES   REMARKS
HUNTINGTON     FOG        8   5  87 CALM      30.53R VSB 1/4
$$

WVZ015-060800-
West Central West Virginia

CITY           SKY/WX    TMP DP  RH WIND       PRES   REMARKS
CHARLESTON     MOCLDY    13   9  84 N3        30.50R
$$

WVZ022-031-060800-
North Central West Virginia

CITY           SKY/WX    TMP DP  RH WIND       PRES   REMARKS
CLARKSBURG     PTCLDY     2   0  91 CALM      30.48R
MORGANTOWN     PTCLDY     5  -2  72 CALM      30.49R
$$

WVZ025-035-042-045-060800-
Southern West Virginia

CITY           SKY/WX    TMP DP  RH WIND       PRES   REMARKS
BECKLEY        PTCLDY     9   5  84 N10       30.33S WCI  -5
LOGAN          NOT AVBL
BLUEFIELD      CLOUDY    12   5  73 VRB5      30.31R WCI   4
LEWISBURG      PTCLDY     7   3  85 CALM      30.34R
$$

WVZ047-060800-
Northern Mountains of West Virginia

CITY           SKY/WX    TMP DP  RH WIND       PRES   REMARKS
ELKINS         CLOUDY     7   4  87 CALM      30.40R
$$

WVZ052-060800-
Eastern Panhandle of West Virginia

CITY           SKY/WX    TMP DP  RH WIND       PRES   REMARKS
MARTINSBURG    PTCLDY    10  -1  61 NW3       30.49R
PETERSBURG       N/A    N/A N/A N/A MISG        N/A
$$


USA.gov is the U.S. government's official web portal to all federal, state and local government web resources and services.